Location: Kaseke
(18.0171°S, 31.0526°E)
Time: 12:40:02
(UTC+00:00)

Cosmos 1536 Rocket - Pass Details

Date: 14 July 2020
Orbit: 604 x 633 km, 82.5° (Epoch: 07 August)

Event Time Altitude Azimuth Distance (km) Brightness Sun altitude
Rises 03:14:42 0° 347° (NNW) 2,851 7.0 -17.1°
Reaches altitude 10° 03:16:56 10° 343° (NNW) 1,951 6.1 -16.6°
Maximum altitude 03:21:10 55° 264° (W) 736 3.6 -15.6°
Drops below altitude 10° 03:25:25 10° 186° (S) 1,966 5.9 -14.7°
Sets 03:27:41 0° 182° (S) 2,875 6.8 -14.2°
